Wind_Speed
46 48 49 47 45 45 46 44 45 42 38 25 27 28 31 31 30 31 30 28 25 27 26 21 22 20 20 24 27 27 27 24 23 26 26 24 23 22 24 25 25 25 28 25
47 48 46 51 49 47 46 46 47 45 44 32 33 36 36 35 33 33 31 32 28 26 23 19 20 20 21 17 24 29 30 29 27 26 26 28 28 28 26 26 27 28 28 30
41 46 46 49 46 43 44 46 49 49 47 38 36 37 40 37 33 30 30 28 26 25 19 19 21 21 22 21 23 26 25 24 22 22 24 25 27 27 27 29 30 31 32 34
35 39 38 45 42 39 38 38 43 44 46 39 39 33 32 38 40 40 33 34 35 33 32 29 24 25 25 22 25 24 23 23 23 24 25 27 29 30 32 34 35 36 37 38
17 36 35 39 38 31 33 35 40 38 38 35 41 41 37 32 29 34 33 29 31 32 31 28 29 26 26 22 26 27 27 28 28 29 31 32 33 35 36 36 38 39 41 43
32 15 31 30 32 33 37 34 30 38 38 35 42 42 34 34 34 37 33 30 30 27 29 30 28 27 27 24 24 26 29 30 32 33 33 35 36 38 40 41 42 42 43 44
34 33 20 21 13 28 37 29 29 31 36 39 44 44 41 42 37 35 36 31 27 27 27 30 31 31 28 28 28 27 29 32 33 33 35 37 40 42 44 45 46 47 47 48
34 35 38 26 20 22 27 25 27 26 37 44 36 43 45 44 40 38 37 29 27 27 29 33 35 31 29 29 30 32 33 34 35 36 37 40 43 44 46 47 48 49 50 51
36 35 37 32 31 29 23 27 22 27 27 34 40 49 48 46 42 41 40 34 31 31 30 31 32 32 33 34 36 36 37 39 41 41 42 43 46 48 49 50 51 51 53 53
34 36 37 39 30 29 28 28 26 26 22 18 32 28 29 46 45 34 36 34 30 32 34 35 35 36 37 36 39 41 44 46 47 47 46 49 51 51 51 53 55 55 57 58
28 33 42 39 36 34 32 30 29 29 28 25 26 30 33 34 39 43 37 35 39 40 40 41 43 42 44 46 45 47 49 47 46 52 54 55 57 57 59 60 60 61 58 63
34 35 38 31 33 35 35 31 31 35 35 29 32 32 35 33 31 33 36 37 37 40 42 43 47 44 45 45 49 50 50 55 56 57 57 59 57 52 54 58 61 58 57 60
35 37 39 38 32 34 29 25 28 29 32 34 33 40 42 40 38 41 41 45 42 40 47 46 45 46 47 55 56 55 54 55 58 61 60 61 48 55 58 61 65 67 65 67
35 40 36 45 37 27 26 29 31 31 27 26 25 31 32 38 38 39 39 39 40 49 55 56 53 54 58 58 56 58 60 63 64 64 65 63 63 61 60 64 64 65 66 68
38 36 34 44 47 41 32 30 31 31 31 26 25 21 26 32 38 42 48 49 52 56 56 57 42 54 57 55 56 59 60 60 58 51 50 55 58 60 63 65 64 63 63 65
43 39 36 37 42 41 39 33 33 34 30 27 28 24 23 25 28 31 36 42 48 60 47 53 54 60 60 52 48 48 46 48 53 57 60 60 61 59 59 61 63 65 67 68
41 39 34 30 33 39 43 41 36 36 37 36 34 28 28 30 30 32 33 35 39 41 42 43 43 41 41 44 47 49 53 56 58 59 59 58 58 61 63 64 66 68 70 71
32 31 35 37 33 36 41 41 41 37 37 40 39 38 34 32 33 33 33 35 36 37 40 42 42 44 45 47 51 53 54 54 56 57 58 60 63 62 64 68 70 72 74 77
41 41 32 31 31 35 39 44 39 37 39 41 42 41 41 40 39 38 39 40 39 41 44 46 47 45 46 49 51 53 56 57 57 60 61 59 62 66 69 71 74 76 79 82
34 29 32 19 28 31 33 34 38 41 43 44 44 44 45 44 44 44 43 43 45 46 45 46 47 48 51 53 55 56 57 59 60 58 59 64 68 71 73 75 79 81 83 86
38 25 13 16 23 27 33 36 35 37 39 44 45 45 46 43 41 39 39 40 42 43 44 47 50 53 55 57 59 59 58 55 58 63 66 70 73 75 77 80 82 84 87 91
21 19 24 27 26 27 34 39 39 39 37 38 41 42 40 37 40 40 41 43 44 45 47 49 52 55 56 54 52 54 57 62 66 69 72 74 76 78 81 84 87 91 93 93
27 29 29 32 35 34 33 35 37 38 39 38 38 39 39 40 43 45 45 45 46 48 49 49 48 48 50 54 58 62 65 67 69 71 74 77 80 83 86 89 90 89 85 83
26 29 30 30 33 35 44 37 37 35 33 35 37 39 40 43 43 42 41 41 42 43 45 48 51 55 58 60 62 65 66 68 71 75 78 81 84 86 85 80 77 77 78 79
26 28 29 30 37 35 38 37 35 36 36 35 37 37 37 36 38 39 40 42 44 47 49 52 55 57 60 62 64 67 69 72 76 79 80 80 76 72 71 72 73 74 73 71
26 33 35 35 33 29 29 31 32 34 36 37 39 40 40 40 40 44 46 47 48 50 52 54 57 60 62 64 68 70 72 73 72 70 67 65 65 66 68 69 68 65 61 60
21 24 27 28 28 29 29 30 31 32 34 36 38 41 41 41 42 46 49 51 53 54 56 58 61 64 65 66 65 64 62 60 58 58 59 61 64 65 64 60 56 54 54 56
Wind_Direction
239 232 227 226 227 232 238 242 244 249 253 228 226 237 236 227 233 237 247 244 224 228 246 252 256 261 279 270 258 258 261 267 278 274 275 277 271 273 276 278 281 283 283 285
239 238 230 227 224 228 234 240 243 248 248 232 220 220 227 229 237 243 254 254 251 254 243 253 247 279 284 268 260 262 266 270 278 273 271 268 268 268 272 279 284 287 287 285
231 236 233 232 235 233 235 241 246 247 247 236 228 232 230 238 241 242 248 259 252 252 262 270 276 281 272 263 262 252 257 270 277 277 274 270 273 278 283 284 284 286 290 292
232 231 236 236 228 233 239 234 245 248 243 240 230 236 238 242 249 249 252 254 259 262 263 272 269 271 267 267 271 262 264 270 273 275 276 277 276 279 284 287 290 293 293 292
265 227 233 238 234 243 244 240 249 249 245 244 238 235 233 241 248 251 254 266 255 259 272 271 278 279 273 275 272 274 272 273 273 275 277 279 279 283 287 289 290 292 293 294
269 253 235 229 233 236 244 247 271 254 245 242 239 235 244 247 252 251 250 255 256 265 263 267 271 277 281 277 269 281 281 278 278 280 282 285 288 288 288 289 290 290 292 293
262 271 250 223 255 251 245 258 264 256 234 241 246 243 241 246 247 250 245 244 250 253 260 264 268 271 274 273 279 277 275 275 277 280 283 286 286 287 287 287 289 290 292 293
252 257 258 261 257 251 244 252 260 258 240 236 248 243 242 245 246 244 247 241 245 255 267 273 276 276 274 277 277 275 274 273 274 277 282 286 288 288 287 286 286 288 289 289
242 246 247 255 257 268 259 250 257 254 235 235 243 232 234 242 248 250 245 244 243 253 260 262 266 273 280 281 280 276 276 277 279 280 286 290 292 293 292 289 288 288 288 289
243 239 245 250 257 265 267 257 258 250 234 249 246 235 228 235 243 246 245 237 244 252 257 260 267 272 276 281 279 274 277 282 283 284 288 290 289 290 290 290 290 290 289 289
252 247 240 243 248 257 253 251 255 257 257 244 245 251 246 248 248 254 261 260 267 261 261 263 266 266 267 271 271 277 281 281 281 287 292 294 292 291 290 290 288 285 287 289
260 260 238 235 242 251 248 247 256 258 260 262 242 237 248 244 246 244 237 259 232 257 240 256 274 269 274 268 271 272 273 282 287 288 291 295 291 287 289 287 295 292 289 284
256 260 244 224 227 236 245 248 252 257 262 264 261 251 250 249 246 245 250 239 238 247 257 267 261 268 265 272 279 278 281 284 287 286 286 289 278 280 286 287 289 290 288 285
255 256 250 229 231 241 245 242 247 254 268 273 271 262 259 253 254 257 255 246 246 252 256 269 270 268 266 272 276 276 280 279 281 282 284 286 282 283 284 285 285 285 285 285
256 256 250 234 231 243 239 239 244 250 257 264 268 269 261 254 252 255 255 255 253 256 244 257 246 254 259 262 268 272 276 280 282 283 283 283 282 283 284 284 284 285 286 288
251 252 252 235 229 238 240 244 244 245 259 254 267 267 259 260 258 254 255 252 253 245 253 259 257 260 268 274 280 283 285 287 287 285 285 286 286 286 285 287 290 291 291 293
244 245 242 242 238 232 237 249 257 252 254 254 258 258 268 273 267 268 263 261 259 259 265 269 272 276 282 285 286 286 284 283 284 285 286 285 284 287 289 292 294 294 294 294
227 234 241 242 244 241 241 246 250 260 251 254 255 256 262 264 272 272 268 264 265 268 271 274 278 280 280 281 280 279 283 286 286 286 285 287 288 289 292 294 294 294 295 296
244 247 252 246 245 244 249 251 254 253 249 255 259 264 265 267 267 270 276 276 274 274 275 276 279 281 281 281 282 283 284 285 287 288 287 288 290 291 292 293 295 295 296 296
232 240 245 223 233 248 251 254 257 257 253 258 263 267 269 271 272 274 275 276 277 278 276 273 274 277 278 281 283 284 284 284 286 287 288 290 291 292 293 295 295 295 295 296
221 235 249 254 253 269 260 263 265 261 259 262 267 268 272 275 277 277 278 277 276 275 275 276 276 276 278 279 281 283 283 284 287 288 289 291 292 293 294 294 295 296 297 298
225 262 265 271 271 258 245 254 261 260 263 267 266 268 271 272 271 271 270 269 269 271 274 277 277 278 278 279 281 283 285 286 289 290 291 292 293 294 295 297 298 299 300 301
259 267 269 272 273 262 257 259 259 259 261 268 272 270 271 272 271 268 268 270 272 273 274 275 276 277 280 283 285 286 287 288 290 292 293 294 296 298 299 300 301 302 302 302
258 262 262 269 274 272 249 254 255 259 265 269 272 273 272 268 266 265 266 268 270 271 273 276 278 281 283 284 286 287 289 291 294 296 298 299 300 301 302 302 303 303 304 305
264 265 266 274 264 255 249 251 260 266 271 278 278 274 268 265 265 267 267 268 271 274 277 280 282 284 286 287 290 292 296 298 299 301 302 302 303 302 303 304 305 306 306 306
274 263 261 260 258 254 253 255 259 264 267 269 267 266 266 268 271 274 276 278 279 281 282 284 287 290 292 295 297 300 302 303 303 303 303 303 303 305 306 307 307 308 309 310
271 264 260 259 259 259 259 260 260 261 263 265 267 268 270 273 275 277 279 282 285 288 291 292 294 296 299 301 303 303 303 303 303 303 304 305 307 308 308 309 310 311 313 315
Height
5600 5608 5608 5613 5619 5624 5628 5634 5635 5640 5643 5653 5658 5663 5665 5666 5668 5671 5673 5675 5677 5680 5683 5682 5681 5681 5680 5679 5679 5679 5681 5682 5682 5681 5680 5681 5680 5680 5680 5680 5680 5678 5677 5673
5590 5597 5603 5604 5608 5614 5619 5623 5625 5629 5633 5644 5649 5650 5654 5658 5660 5662 5665 5668 5669 5672 5673 5675 5675 5674 5674 5673 5673 5672 5672 5674 5675 5674 5674 5673 5674 5675 5674 5674 5673 5671 5669 5668
5580 5588 5594 5598 5607 5609 5611 5614 5617 5620 5624 5634 5639 5643 5647 5651 5652 5655 5657 5658 5660 5663 5664 5665 5667 5667 5667 5667 5667 5667 5667 5666 5667 5667 5668 5667 5668 5668 5667 5667 5666 5664 5662 5659
5574 5580 5587 5594 5600 5602 5602 5606 5609 5611 5615 5622 5629 5634 5639 5643 5645 5647 5650 5651 5653 5654 5657 5658 5659 5661 5661 5660 5660 5659 5659 5660 5660 5660 5660 5660 5660 5659 5658 5656 5654 5652 5651 5649
5566 5572 5580 5585 5592 5594 5595 5602 5601 5602 5607 5614 5619 5622 5629 5637 5638 5640 5642 5644 5646 5647 5650 5651 5651 5652 5652 5652 5652 5652 5652 5652 5652 5651 5651 5651 5650 5648 5645 5643 5642 5640 5637 5636
5561 5565 5572 5579 5582 5586 5588 5592 5593 5594 5600 5605 5608 5613 5622 5628 5630 5631 5633 5636 5638 5640 5642 5643 5643 5644 5643 5644 5644 5644 5643 5642 5642 5642 5641 5640 5639 5637 5635 5633 5631 5628 5627 5624
5557 5559 5566 5573 5575 5579 5583 5590 5588 5589 5594 5597 5601 5605 5612 5616 5620 5623 5624 5626 5630 5632 5633 5634 5635 5636 5636 5636 5635 5635 5634 5633 5633 5632 5631 5629 5628 5626 5624 5621 5618 5616 5614 5611
5553 5557 5562 5566 5570 5574 5576 5579 5581 5580 5583 5588 5592 5597 5601 5607 5610 5614 5618 5619 5622 5624 5624 5625 5625 5626 5627 5627 5627 5626 5625 5625 5624 5623 5621 5619 5618 5616 5613 5610 5608 5605 5601 5598
5547 5551 5556 5558 5562 5566 5569 5572 5574 5575 5578 5582 5583 5585 5589 5595 5600 5603 5608 5611 5612 5614 5615 5615 5616 5616 5617 5617 5616 5616 5615 5613 5612 5612 5610 5608 5606 5603 5600 5598 5595 5592 5588 5584
5541 5547 5548 5552 5557 5561 5562 5563 5566 5568 5569 5571 5575 5578 5581 5584 5589 5593 5596 5598 5600 5603 5604 5605 5606 5607 5607 5606 5606 5605 5604 5602 5601 5599 5598 5596 5594 5591 5588 5584 5581 5578 5573 5569
5535 5538 5541 5546 5550 5554 5555 5556 5558 5560 5563 5565 5568 5570 5574 5576 5580 5583 5585 5588 5590 5591 5592 5593 5594 5595 5595 5594 5594 5593 5592 5590 5589 5587 5585 5583 5580 5576 5573 5569 5566 5562 5557 5552
5528 5528 5532 5540 5543 5547 5548 5549 5552 5555 5555 5557 5561 5562 5563 5566 5571 5574 5576 5577 5577 5577 5579 5581 5582 5580 5581 5582 5581 5581 5579 5577 5575 5573 5571 5568 5564 5561 5557 5553 5549 5545 5540 5535
5521 5522 5526 5530 5534 5537 5540 5545 5546 5546 5548 5550 5551 5553 5555 5558 5560 5562 5565 5570 5570 5570 5571 5571 5573 5571 5569 5569 5568 5567 5565 5564 5561 5559 5557 5555 5550 5545 5542 5538 5533 5529 5523 5518
5512 5514 5517 5523 5527 5530 5533 5537 5537 5539 5541 5542 5543 5543 5543 5546 5549 5551 5554 5556 5556 5559 5559 5559 5558 5558 5557 5555 5554 5552 5550 5548 5546 5543 5541 5538 5535 5530 5527 5523 5517 5511 5505 5499
5503 5505 5508 5512 5519 5523 5526 5529 5529 5531 5533 5535 5535 5533 5534 5535 5537 5539 5541 5543 5545 5545 5544 5545 5543 5541 5541 5539 5538 5537 5534 5532 5529 5526 5524 5521 5517 5513 5509 5504 5497 5492 5487 5481
5496 5499 5501 5503 5508 5514 5517 5520 5521 5523 5525 5525 5526 5526 5525 5527 5527 5528 5528 5529 5529 5532 5530 5530 5530 5528 5526 5525 5523 5521 5519 5517 5514 5511 5507 5503 5498 5493 5488 5483 5477 5471 5465 5459
5488 5491 5494 5496 5499 5503 5507 5509 5512 5514 5515 5515 5516 5517 5517 5517 5518 5518 5517 5518 5518 5518 5517 5516 5515 5514 5513 5512 5510 5508 5505 5501 5498 5494 5489 5485 5480 5475 5470 5464 5457 5451 5444 5437
5481 5483 5487 5488 5491 5495 5497 5500 5502 5503 5505 5505 5506 5507 5507 5508 5507 5507 5507 5506 5507 5507 5505 5505 5504 5502 5501 5498 5496 5492 5489 5485 5481 5476 5471 5466 5461 5456 5450 5444 5438 5431 5425 5417
5473 5476 5478 5478 5480 5484 5487 5490 5492 5493 5494 5495 5496 5496 5496 5497 5497 5496 5495 5495 5495 5494 5493 5491 5490 5488 5485 5483 5479 5476 5472 5467 5463 5459 5454 5449 5444 5438 5432 5426 5419 5411 5403 5394
5466 5469 5470 5469 5473 5476 5478 5480 5482 5483 5484 5485 5486 5485 5486 5485 5484 5484 5483 5482 5481 5480 5478 5477 5474 5472 5470 5466 5463 5459 5455 5451 5446 5442 5437 5432 5426 5420 5413 5406 5398 5390 5381 5372
5457 5461 5462 5465 5466 5467 5468 5470 5472 5473 5473 5474 5475 5475 5474 5473 5472 5471 5470 5469 5467 5466 5464 5462 5460 5457 5454 5451 5447 5443 5439 5435 5431 5426 5421 5414 5408 5400 5393 5385 5377 5368 5358 5348
5451 5453 5455 5456 5457 5459 5460 5460 5460 5461 5462 5462 5462 5462 5461 5460 5459 5457 5456 5455 5454 5452 5450 5448 5445 5442 5439 5435 5432 5428 5424 5420 5414 5408 5401 5394 5387 5379 5371 5362 5353 5344 5334 5322
5444 5445 5446 5446 5447 5448 5448 5449 5449 5450 5450 5450 5449 5449 5448 5447 5446 5444 5443 5441 5439 5437 5435 5432 5430 5427 5424 5420 5416 5412 5407 5401 5395 5388 5381 5374 5365 5357 5348 5339 5329 5319 5307 5295
5436 5436 5437 5437 5436 5435 5436 5437 5438 5438 5438 5437 5436 5435 5435 5433 5432 5430 5428 5426 5425 5423 5421 5419 5416 5412 5408 5403 5399 5393 5388 5381 5374 5367 5360 5352 5344 5335 5325 5315 5305 5294 5284 5273
5427 5427 5427 5427 5426 5425 5424 5425 5425 5425 5425 5424 5423 5422 5422 5420 5419 5418 5416 5413 5411 5408 5406 5403 5399 5395 5391 5386 5380 5375 5368 5361 5354 5347 5339 5330 5321 5312 5303 5294 5284 5274 5264 5254
5419 5418 5418 5418 5417 5416 5415 5414 5413 5413 5413 5413 5412 5412 5410 5409 5406 5405 5403 5400 5397 5394 5390 5386 5382 5378 5373 5368 5362 5355 5347 5340 5333 5325 5318 5311 5303 5294 5285 5276 5266 5257 5247 5238
5412 5411 5410 5409 5407 5406 5405 5404 5403 5402 5402 5401 5400 5399 5397 5394 5392 5391 5389 5385 5382 5378 5374 5370 5365 5360 5355 5348 5341 5334 5328 5322 5316 5309 5302 5294 5286 5276 5268 5259 5250 5242 5233 5224